Regional Weather Roundup
Issued by NWS Newport/Morehead, NC

Current Version | Previous Version | Graphics & Text | Print | Product List | Glossary On
Versions: 1 2 3 4 5 6 7 8 9 10 11 12 13 14 15 16 17 18 19 20 21 22 23 24 25 26 27 28 29 30 31 32 33 34 35 36 37 38 39 40 41 42 43 44 45 46 47 48 49 50
000 ASUS42 KMHX 261413 RWRMHX WEATHER ROUNDUP FOR EASTERN NORTH CAROLINA NATIONAL WEATHER SERVICE NEWPORT/MOREHEAD CITY NC 1000 AM EDT FRI MAY 26 2017 NOTE: "FAIR" INDICATES FEW OR NO CLOUDS BELOW 12,000 FEET WITH NO SIGNIFICANT WEATHER AND/OR OBSTRUCTIONS TO VISIBILITY NCZ015>017-031-032-045>047-102-103-261500- NORTH COAST CITY SKY/WX TMP DP RH WIND PRES REMARKS EDENTON NOT AVBL ELIZABETH CITY SUNNY 72 58 61 W24 29.83R KITTY HAWK SUNNY 72 56 58 W16G23 29.83S MANTEO SUNNY 72 56 58 W14G25 29.85S $$ NCZ045>047-081-094-103-104-261500- CENTRAL COAST CITY SKY/WX TMP DP RH WIND PRES REMARKS FRISCO SUNNY 75 60 59 W12G25 29.88R $$ NCZ095-097-098-100-101-261500- SOUTHERN COAST CITY SKY/WX TMP DP RH WIND PRES REMARKS BEAUFORT SUNNY 76 56 49 W15 29.91S CEDAR ISLAND NOT AVBL JACKSONVILLE SUNNY 74 58 57 W13 29.92S PINEY ISLAND SUNNY N/A N/A N/A W17G26 29.89 WILMINGTON SUNNY 73 58 59 W8 29.95F $$ NCZ011>013-027>030-043-044-078>080-089-090>093-098-261500- COASTAL PLAIN CITY SKY/WX TMP DP RH WIND PRES REMARKS AHOSKIE N/A 70 56 61 W6 29.86S CLINTON SUNNY 73 57 57 SW10G16 29.95R ELIZABETHTOWN SUNNY 74 56 53 W8 29.95F GOLDSBORO SUNNY 73 57 57 W17G23 29.91R GREENVILLE SUNNY 75 55 50 W7G20 29.91S HAVELOCK SUNNY 76 54 46 W15 29.92R KENANSVILLE SUNNY 73 55 53 W9 29.94R KINSTON SUNNY 73 55 53 W9 29.92S NEW BERN SUNNY 74 56 53 W10 29.92S RICHLANDS SUNNY 75 59 57 SW12 29.94R ROCKY MOUNT SUNNY 73 57 57 W14G24 29.90R WASHINGTON SUNNY 73 56 54 W15G23 29.89S WHITEVILLE SUNNY 72 56 57 W3 29.96S $$ AMZ130-135-150-152-154-156-158-170-250-252-270-ANZ085-086-088-633-658-670-261500- MARINE OBSERVATIONS STATION/POSITION TIME TEMP WIND PRES WAVE SWELL AIR SEA DIR/SP/G HT/PER HT/PER (UTC) (F) (DEG/KT/KT) (MB) (FT/S) (FT/S) CHESAPEAKE LIGHT NOT AVBL 64 E VA BEACH 1350 64 62 250/ 16/ 17 1009.3 7/ 8 5/ 8 DUCK 1348 70 62 260/ 18/ 24 1009.6 2 E DUCK 1400 62 N/A 2/ 8 OREGON INLET 1342 71 70 270/ 14/ 21 1010.3 13E OREGON INLT 1348 65 N/A 5/ 8 3/ 8 HATTERAS CG 1348 71 72 260/ 22/ 25 1011.4 DIAMOND BUOY 1350 72 78 270/ 19/ 23 1011.6 8/ 8 3/12 CAPE LOOKOUT 1400 72 270/ 16/ 19 1012.6 BEAUFORT LAB 1348 73 70 250/ 7/ 12 1012.3 30 SE NEW RVR IN 1308 71 78 280/ 16/ 19 1014.0 30 SE NEW RVR IN 1343 78 N/A 7/ 8 27 SE WRIGHTSVLE 1308 70 76 260/ 14/ 19 1013.8 5 SE WRIGHTSVLE 1308 70 73 290/ 12/ 19 1014.1 225 S CAPE HAT 1350 76 76 290/ 14/ 17 1015.9 8/ 8 7/ 8 41 SE CHARLESTON 1350 72 75 290/ 12/ 14 1016.1 4/ 5 2/ 8 $$

USA.gov is the U.S. government's official web portal to all federal, state and local government web resources and services.